This is the latest recevied weather packets stored in our database for station/object KA6UPU-1. If no packets are shown the sender has not sent any weather packets the latest 10 day(s).
| Time | Temp. | Humidity | Pressure | Rain* | Wind** | Luminosity | Snow |
|---|---|---|---|---|---|---|---|
| 1777926875 | 18.33° C | 58% | 1014.6 hPa | 0 mm | - | - | - |
| 1777926575 | 18.33° C | 58% | 1014.7 hPa | 0 mm | - | - | - |
| 1777926275 | 18.33° C | 59% | 1014.7 hPa | 0 mm | - | - | - |
| 1777925976 | 18.33° C | 58% | 1014.7 hPa | 0 mm | - | - | - |
| 1777925675 | 18.33° C | 60% | 1014.6 hPa | 0 mm | - | - | - |
| 1777925375 | 17.78° C | 58% | 1014.7 hPa | 0 mm | - | - | - |
| 1777925075 | 17.78° C | 57% | 1014.7 hPa | 0 mm | - | - | - |
| 1777924775 | 17.78° C | 58% | 1014.5 hPa | 0 mm | - | - | - |
| 1777924475 | 17.78° C | 57% | 1014.7 hPa | 0 mm | - | - | - |
| 1777924175 | 17.78° C | 57% | 1014.8 hPa | 0 mm | - | - | - |
| 1777923875 | 18.33° C | 57% | 1014.8 hPa | 0 mm | - | - | - |
| 1777923575 | 18.33° C | 55% | 1014.9 hPa | 0 mm | - | - | - |
| 1777923104 | 18.33° C | 54% | 1014.8 hPa | 0 mm | - | - | - |
| 1777922804 | 18.33° C | 54% | 1014.8 hPa | 0 mm | - | - | - |
| 1777922505 | 18.33° C | 56% | 1014.9 hPa | 0 mm | - | - | - |
| 1777922204 | 18.33° C | 57% | 1014.9 hPa | 0 mm | - | - | - |
| 1777921905 | 18.33° C | 57% | 1014.9 hPa | 0 mm | - | - | - |
| 1777921304 | 18.33° C | 57% | 1014.8 hPa | 0 mm | - | - | - |
| 1777921004 | 18.33° C | 54% | 1014.8 hPa | 0 mm | - | - | - |
| 1777920704 | 18.33° C | 55% | 1015 hPa | 0 mm | - | - | - |
| 1777920104 | 18.89° C | 55% | 1015 hPa | 0 mm | - | - | - |
| 1777919804 | 18.89° C | 56% | 1014.9 hPa | 0 mm | - | - | - |
| 1777919504 | 18.89° C | 55% | 1014.8 hPa | 0 mm | - | - | - |
| 1777919204 | 18.89° C | 55% | 1014.9 hPa | 0 mm | - | - | - |
| 1777918905 | 18.89° C | 55% | 1014.8 hPa | 0 mm | - | - | - |
* Rain latest hour (hover to see other rain measurements)
** Current wind speed in m/s (hover to see current wind gust speed)